[[{"header":{"parameterUnit":"m.s-1","parameterCategory":1,"la1":30.2991,"la2":30.254,"lo1":-89.0895,"lo2":-89.0444,"dy":0.0017,"dx":0.0017,"nx":28,"ny":28,"refTime":"2023-04-25T21:00:00:Z","depth":0,"parameterNumber":2,"parameterNumberName":"U-component_of_WINDS"},"data":[0,0,0,0,0,0,0,0,0,0,0,0,0,0,0,0,0,0,0,0,0,0,0,0,0,0,0,0,0,0,0,0,0,0,0,0,0,0,0,0,0,0,0,0,0,0,0,0,0,0,0,0,0,0,0,0,0,0,-2.8919,-2.892,0,-2.9008,-2.9009,-2.901,-2.9011,-2.901,-2.9009,-2.9008,-2.91,-2.9103,-2.9107,0,0,0,0,0,0,0,0,0,0,0,0,0,-2.875,-2.8753,-2.8919,-2.892,-2.8921,-2.9008,-2.9009,-2.901,-2.9011,-2.901,-2.9008,-2.9007,-2.9099,-2.9103,-2.9107,0,0,0,0,0,0,0,0,0,0,0,0,0,-2.883,-2.8754,-2.8918,-2.8932,-2.8934,-2.9008,-2.9009,-2.9011,-2.9012,-2.901,-2.9008,-2.9007,-2.9097,-2.9102,-2.9108,-2.9174,0,0,-2.9124,-2.9126,0,0,0,0,0,0,0,0,-2.8825,-2.8836,-2.8929,-2.8931,-2.8933,-2.8997,-2.8983,-2.9065,-2.9012,-2.8982,-2.9008,-2.9006,-2.9067,-2.9075,-2.9095,-2.9179,-2.9182,-2.9124,-2.9127,-2.913,-2.9131,0,0,0,0,0,0,0,-2.882,-2.8832,-2.8954,-2.893,-2.8933,-2.8934,-2.8943,-2.8999,-2.9033,-2.8985,-2.8985,-2.8995,-2.9068,-2.909,-2.9097,-2.9184,-2.9124,-2.9129,-2.9132,-2.9134,-2.9327,-2.9328,0,0,0,0,0,0,-2.8811,-2.8827,-2.8951,-2.8957,-2.8874,-2.8938,-2.8949,-2.8978,-2.9032,-2.9039,-2.8997,-2.8995,-2.9082,-2.9091,-2.9101,-2.9182,-2.913,-2.9135,-2.9138,-2.9325,-2.9327,-2.9329,0,0,0,0,0,0,-2.8808,-2.8822,-2.8947,-2.8892,-2.8908,-2.8943,-2.8976,-2.8981,-2.9003,-2.9042,-2.9048,-2.9013,-2.9081,-2.9093,-2.9156,-2.9185,-2.9137,-2.9142,-2.9322,-2.9325,-2.9328,-2.9344,0,0,0,0,0,0,-2.8803,-2.8821,-2.8846,-2.8893,-2.8911,-2.9001,-2.8978,-2.8984,-2.9012,-2.901,-2.9058,-2.9065,-2.9081,-2.9148,-2.9161,-2.9191,-2.9146,-2.932,-2.9324,-2.9327,-2.9341,-2.9347,-2.9353,0,0,0,0,0,-2.8797,-2.8848,-2.8848,-2.8862,-2.8943,-2.9003,-2.9013,-2.903,-2.9014,-2.904,-2.9065,-2.9063,-2.918,-2.9154,-2.9169,-2.9201,-2.9318,-2.9323,-2.9327,-2.9339,-2.9346,-2.9353,0,0,0,0,0,0,-2.8804,-2.8854,-2.8854,-2.8922,-2.8958,-2.9003,-2.9036,-2.9037,-2.9079,-2.9076,-2.9096,-2.9107,-2.9169,-2.9192,-2.9162,-2.9269,-2.9247,-2.9255,-2.9251,-2.9259,-2.9264,-2.9257,-2.915,0,0,0,0,0,-2.8813,-2.8857,-2.8898,-2.8954,-2.8972,-2.9001,-2.9027,-2.9037,-2.9075,-2.9091,-2.912,-2.9158,-2.9203,-2.9232,-2.9276,-2.9345,-2.9356,-2.9375,-2.938,-2.9385,-2.9391,-2.9429,-2.9438,-2.9343,-2.9343,-2.9343,0,0,-2.8833,-2.8866,-2.8892,-2.8956,-2.8985,-2.903,-2.9013,-2.9062,-2.9095,-2.9098,-2.9159,-2.9182,-2.9226,-2.9292,-2.9322,-2.9312,-2.9419,-2.9391,-2.9394,-2.9397,-2.9434,-2.9443,-2.9451,-2.9346,-2.9346,-2.9345,0,0,-2.8891,-2.8921,-2.897,-2.8999,-2.9044,-2.9063,-2.9075,-2.912,-2.9135,-2.9196,-2.9199,-2.924,-2.9318,-2.9348,-2.9374,-2.9445,-2.9445,-2.9459,-2.9488,-2.9525,-2.9532,-2.9539,-2.9564,-2.9573,-2.9465,-2.9465,-2.9465,0,-2.891,-2.8977,-2.8995,-2.9043,-2.9071,-2.9076,-2.9126,-2.9154,-2.9211,-2.923,-2.9219,-2.9316,-2.9346,-2.9419,-2.9436,-2.9457,-2.9471,-2.9453,-2.953,-2.9537,-2.9543,-2.9567,-2.9576,-2.9466,-2.9466,-2.9466,-2.9466,0,-2.8998,-2.9045,-2.9079,-2.9133,-2.9165,-2.9214,-2.9239,-2.927,-2.9278,-2.9298,-2.9361,-2.9397,-2.9447,-2.9466,-2.9474,-2.9541,-2.9533,-2.9526,-2.9504,-2.9553,-2.9576,-2.9585,-2.9468,-2.9468,-2.9467,-2.9467,0,0,-2.9062,-2.9125,-2.9138,-2.9162,-2.9212,-2.9249,-2.9298,-2.9348,-2.9373,-2.9413,-2.9455,-2.9521,-2.9514,-2.9543,-2.9555,-2.9588,-2.9641,-2.9576,-2.9578,-2.9586,-2.9716,-2.9721,-2.9731,-2.9642,-2.9644,-2.9645,-2.9712,0,-2.9125,-2.9212,-2.923,-2.9305,-2.9349,-2.9355,-2.9398,-2.9433,-2.9454,-2.9494,-2.9517,-2.9563,-2.9552,-2.9569,-2.9602,-2.9628,-2.9667,-2.9623,-2.9681,-2.9683,-2.9668,-2.9743,-2.9748,-2.9809,-2.9721,-2.9723,-2.9724,0,-2.921,-2.9251,-2.933,-2.9374,-2.9393,-2.9432,-2.9479,-2.9517,-2.9558,-2.9571,-2.9604,-2.9612,-2.9664,-2.9641,-2.9713,-2.9683,-2.9708,-2.9724,-2.9727,-2.9732,-2.9705,-2.9749,-2.9829,-2.9838,-2.9738,-2.9737,-2.9736,0,-2.9247,-2.9323,-2.938,-2.9401,-2.9454,-2.9481,-2.9504,-2.9543,-2.9572,-2.9614,-2.9633,-2.968,-2.9706,-2.9742,-2.9763,-2.9745,-2.9834,-2.9813,-2.9846,-2.9845,-2.9863,-2.9861,-2.9947,-2.9881,-2.9881,-2.9881,-2.988,0,-2.9315,-2.9364,-2.9398,-2.9433,-2.9487,-2.9508,-2.9561,-2.9585,-2.9619,-2.9659,-2.9668,-2.9706,-2.9732,-2.9773,-2.9791,-2.9847,-2.9859,-2.9871,-2.9875,-2.987,-2.9868,-2.9885,-2.9881,-2.9883,-2.9883,-2.9882,-2.9882,0,-2.9366,-2.9391,-2.9453,-2.9499,-2.9511,-2.9549,-2.9588,-2.9623,-2.9644,-2.9695,-2.9708,-2.9741,-2.9791,-2.9816,-2.9878,-2.9889,-2.9953,-2.9955,-2.9939,-2.994,-2.9971,-2.9968,-3.007,-3.0085,-3.001,-3.001,-3.0011,0,-2.9407,-2.9444,-2.9494,-2.9521,-2.9545,-2.9589,-2.9618,-2.964,-2.967,-2.972,-2.9748,-2.9798,-2.9839,-2.9917,-2.9947,-2.9995,-2.9997,-3.003,-3.0004,-2.9998,-2.9997,-2.9994,-2.9997,-3.0034,-3.0035,-3.0035,-3.0036,0,-2.9477,-2.9488,-2.9529,-2.9576,-2.961,-2.9648,-2.9685,-2.9707,-2.9735,-2.9769,-2.9819,-2.985,-2.9913,-2.9962,-3.0012,-3.0037,-3.0041,-3.0044,-3.0054,-3.0048,-3.0037,-3.0043,-2.995,-3.0041,-3.0041,-3.004,-3.004,-3.004,-2.9524,-2.9557,-2.9597,-2.9643,-2.9673,-2.9708,-2.9742,-2.9768,-2.981,-2.9862,-2.9873,-2.9926,-2.9967,-3.0034,-3.006,-3.0102,-3.0095,-3.011,-3.0114,-3.0117,-3.0117,-3.0031,-3.0112,-3.0112,-3.0111,-3.0111,-3.0111,0,-2.9594,-2.962,-2.9662,-2.9713,-2.975,-2.9751,-2.9792,-2.9822,-2.9869,-2.9906,-2.9946,-3.0004,-3.0052,-3.0086,-3.0135,-3.0162,-3.0165,-3.0174,-3.0172,-3.0177,-3.0121,-3.0107,-3.0171,-3.0171,-3.0171,-3.0171,-3.017,-3.017,-2.9634,-2.9691,-2.9706,-2.9777,-2.9803,-2.9854,-2.9878,-2.991,-2.9939,-3.0003,-3.0043,-3.0065,-3.0101,-3.0153,-3.0197,-3.0206,-3.0223,-3.0232,-3.0241,-3.0188,-3.0181,-3.0175,-3.0162,-3.0236,-3.0236,-3.0293,-3.0293,-3.0294]},{"header":{"parameterUnit":"m.s-1","parameterCategory":1,"la1":30.2991,"la2":30.254,"lo1":-89.0895,"lo2":-89.0444,"dy":0.0017,"dx":0.0017,"nx":28,"ny":28,"refTime":"2023-04-25T21:00:00:Z","depth":0,"parameterNumber":3,"parameterNumberName":"V-component_of_WINDS"},"data":[0,0,0,0,0,0,0,0,0,0,0,0,0,0,0,0,0,0,0,0,0,0,0,0,0,0,0,0,0,0,0,0,0,0,0,0,0,0,0,0,0,0,0,0,0,0,0,0,0,0,0,0,0,0,0,0,0,0,3.1693,3.1693,0,3.1711,3.1711,3.1711,3.1681,3.1679,3.1678,3.1677,3.1694,3.1695,3.1696,0,0,0,0,0,0,0,0,0,0,0,0,0,3.1631,3.1633,3.1693,3.1693,3.1694,3.1711,3.1711,3.1711,3.1681,3.1679,3.1678,3.1677,3.1693,3.1695,3.1696,0,0,0,0,0,0,0,0,0,0,0,0,0,3.1654,3.1633,3.1693,3.168,3.168,3.1711,3.1711,3.1711,3.1681,3.1679,3.1678,3.1676,3.1693,3.1695,3.1697,3.174,0,0,3.1703,3.1704,0,0,0,0,0,0,0,0,3.1653,3.1657,3.1682,3.1681,3.168,3.1692,3.1695,3.1721,3.1681,3.168,3.1677,3.1676,3.1694,3.1696,3.1703,3.1741,3.1742,3.1703,3.1704,3.1705,3.1706,0,0,0,0,0,0,0,3.1652,3.1656,3.17,3.1682,3.1681,3.1673,3.1675,3.17,3.1696,3.168,3.1678,3.1681,3.1693,3.1701,3.1703,3.1742,3.1703,3.1705,3.1706,3.1707,3.1818,3.182,0,0,0,0,0,0,3.1652,3.1655,3.1699,3.1701,3.1663,3.1676,3.1678,3.169,3.1695,3.1695,3.1682,3.1679,3.1698,3.17,3.1703,3.1755,3.1705,3.1707,3.1709,3.1816,3.1819,3.182,0,0,0,0,0,0,3.1651,3.1656,3.1699,3.1677,3.1682,3.1678,3.1692,3.1691,3.1698,3.1697,3.1696,3.169,3.1697,3.17,3.1732,3.1756,3.1708,3.171,3.1814,3.1817,3.1819,3.186,0,0,0,0,0,0,3.1649,3.1656,3.1673,3.1678,3.1683,3.1728,3.1694,3.1692,3.1702,3.1699,3.1704,3.1704,3.1696,3.1729,3.1734,3.1758,3.1712,3.1812,3.1816,3.1819,3.1856,3.1863,3.187,0,0,0,0,0,3.1647,3.1683,3.1674,3.1679,3.1704,3.1729,3.1732,3.1723,3.1704,3.1721,3.172,3.1703,3.1752,3.1732,3.1738,3.1762,3.1811,3.1815,3.1818,3.1853,3.1862,3.1869,0,0,0,0,0,0,3.168,3.1683,3.1673,3.1712,3.1721,3.1724,3.1745,3.1732,3.1746,3.1742,3.1729,3.1731,3.1765,3.1766,3.1744,3.1805,3.1778,3.1783,3.1803,3.1811,3.1818,3.1817,3.1713,0,0,0,0,0,3.1692,3.1712,3.1714,3.1748,3.1753,3.1748,3.1758,3.1751,3.1759,3.1762,3.1763,3.1771,3.1788,3.18,3.1815,3.1856,3.1857,3.1876,3.1883,3.1888,3.1893,3.1915,3.1924,3.1833,3.1833,3.1833,0,0,3.1716,3.1721,3.1734,3.1755,3.176,3.1781,3.1751,3.1774,3.179,3.1765,3.1795,3.1797,3.1805,3.1841,3.1858,3.1844,3.1918,3.1893,3.1897,3.1899,3.192,3.1929,3.1936,3.1835,3.1835,3.1835,0,0,3.1772,3.1777,3.1807,3.1813,3.1823,3.182,3.1827,3.1832,3.1832,3.1862,3.1845,3.1862,3.1892,3.1899,3.1906,3.1965,3.1951,3.1971,3.2005,3.2027,3.2034,3.2041,3.2062,3.207,3.1975,3.1975,3.1975,0,3.1801,3.1833,3.1823,3.1848,3.1858,3.1837,3.1867,3.1873,3.1887,3.1894,3.1879,3.1916,3.192,3.1958,3.1973,3.1979,3.1987,3.197,3.2034,3.204,3.2046,3.2066,3.2075,3.1978,3.1977,3.1977,3.1977,0,3.1868,3.1891,3.1913,3.1928,3.194,3.1967,3.1961,3.1974,3.1966,3.1964,3.1995,3.2,3.2016,3.2024,3.2016,3.2062,3.2053,3.2036,3.2009,3.2057,3.2076,3.2084,3.1981,3.198,3.1979,3.1979,0,0,3.1945,3.1955,3.1964,3.1971,3.198,3.1996,3.2022,3.2039,3.2051,3.2061,3.2083,3.2109,3.2094,3.2102,3.2094,3.2113,3.2161,3.2094,3.2094,3.2107,3.2212,3.2225,3.2235,3.2151,3.2152,3.2154,3.2212,0,3.2001,3.2047,3.2039,3.2084,3.2104,3.2086,3.2108,3.2116,3.2116,3.2133,3.2131,3.215,3.2128,3.2133,3.2152,3.2151,3.2182,3.2147,3.2171,3.2172,3.217,3.2244,3.2258,3.2313,3.2219,3.222,3.2221,0,3.2072,3.2086,3.2133,3.214,3.2148,3.2169,3.2184,3.2201,3.2209,3.2208,3.2218,3.2206,3.2232,3.2204,3.224,3.2216,3.2225,3.2227,3.2228,3.2231,3.22,3.2249,3.233,3.2338,3.2233,3.2232,3.2231,0,3.2124,3.2155,3.2187,3.2193,3.2202,3.2217,3.2221,3.2228,3.2239,3.2252,3.2259,3.2275,3.2284,3.2296,3.2289,3.2269,3.2326,3.2297,3.2325,3.2325,3.2338,3.2337,3.2422,3.2343,3.2343,3.2343,3.2343,0,3.2188,3.2217,3.2211,3.2231,3.2263,3.2254,3.2286,3.2288,3.2295,3.2314,3.2298,3.2317,3.2307,3.2324,3.2319,3.235,3.2353,3.2353,3.2351,3.2354,3.2355,3.2361,3.2357,3.2345,3.2345,3.2344,3.2344,0,3.2252,3.2249,3.2283,3.2288,3.229,3.2314,3.2319,3.2337,3.2335,3.236,3.2366,3.2363,3.2383,3.2377,3.2399,3.2395,3.2434,3.2427,3.2432,3.243,3.2459,3.2456,3.2551,3.2563,3.2476,3.2476,3.2477,0,3.2293,3.2315,3.2324,3.2336,3.2342,3.2362,3.2373,3.2365,3.2377,3.2389,3.2406,3.2425,3.244,3.2473,3.2473,3.2489,3.2483,3.2515,3.2485,3.2488,3.2484,3.2483,3.2486,3.2521,3.2522,3.2523,3.2523,0,3.2366,3.2364,3.2381,3.2399,3.2413,3.2426,3.2437,3.2448,3.244,3.2455,3.2476,3.2487,3.251,3.2529,3.2544,3.2548,3.2535,3.2533,3.254,3.2544,3.2546,3.2546,3.2448,3.2531,3.253,3.2529,3.2529,3.2529,3.242,3.244,3.2449,3.2469,3.2477,3.2488,3.2506,3.2507,3.2525,3.2543,3.2537,3.2561,3.2569,3.2588,3.2594,3.2613,3.26,3.2611,3.2614,3.2617,3.2621,3.2543,3.2615,3.2615,3.2615,3.2614,3.2614,0,3.2494,3.2499,3.2518,3.2535,3.255,3.2537,3.2549,3.2563,3.2585,3.2594,3.2609,3.2633,3.2652,3.2653,3.2671,3.2685,3.268,3.269,3.2689,3.2691,3.263,3.2622,3.2695,3.2695,3.2695,3.2695,3.2694,3.2694,3.2534,3.2566,3.2565,3.2601,3.2606,3.263,3.2638,3.2648,3.2656,3.2684,3.27,3.2701,3.2707,3.2725,3.2741,3.2741,3.2748,3.2761,3.2759,3.2703,3.2695,3.2687,3.268,3.2763,3.2763,3.2818,3.2818,3.2819]}]]